Regional Weather Roundup
Issued by NWS

Home | Current Version | Previous Version | Text Only | Print | Product List | Glossary Off
Versions: 1 2 3 4 5 6 7 8 9 10 11 12 13 14 15 16 17 18 19 20 21 22 23 24 25 26 27 28 29 30 31 32 33 34 35 36 37 38 39 40 41 42 43 44 45 46 47 48 49 50

000
ASUS43 KBIS 090510
RWRND

NORTH DAKOTA REGIONAL WEATHER ROUNDUP
NATIONAL WEATHER SERVICE BISMARCK ND
1100 PM CST THU DEC 08 2016

NOTE: "FAIR" INDICATES FEW OR NO CLOUDS BELOW 12,000 FEET WITH NO
SIGNIFICANT WEATHER AND/OR OBSTRUCTIONS TO VISIBILITY.


NDZ001>003-009>011-017-090600-
NORTHWEST NORTH DAKOTA

CITY           SKY/WX    TMP DP  RH WIND       PRES   REMARKS
WILLISTON      CLOUDY   -14 -19  79 CALM      30.57F
MINOT          CLOUDY    -7 -12  79 W10       30.56S WCI -25
MINOT AFB      CLOUDY    -9 -14  77 NW10      30.56S WCI -27
$$

NDZ018>021-031>035-040>046-090600-
SOUTHWEST NORTH DAKOTA

CITY           SKY/WX    TMP DP  RH WIND       PRES   REMARKS
BISMARCK       CLOUDY    -4  -9  79 W7        30.60S WCI -18
DICKINSON      CLOUDY   -15 -20  78 W3        30.47S
GARRISON         N/A    -11 -16  78 NW9       30.55S WCI -29
HETTINGER ARPT CLOUDY   -20 -23  86 CALM      30.49F
$$

NDZ004>008-012>016-024-026-027-054-090600-
NORTHEAST NORTH DAKOTA

CITY           SKY/WX    TMP DP  RH WIND       PRES   REMARKS
GRAND FORKS    CLOUDY     9   2  73 NW10      30.58S WCI  -5
GRND FRKS AFB  CLOUDY     7   0  72 NW8       30.58S WCI  -5
DEVILS LAKE    FLURRIES  -2  -5  87 W9        30.55F WCI -18
$$

NDZ022-023-025-028>030-036>039-047>053-090600-
SOUTHEAST NORTH DAKOTA

CITY           SKY/WX    TMP DP  RH WIND       PRES   REMARKS
FARGO          CLOUDY     8   1  73 W7        30.59S WCI  -3
JAMESTOWN      CLEAR     -5 -10  79 NW14      30.56S WCI -25
$$





USA.gov is the U.S. government's official web portal to all federal, state and local government web resources and services.